Time,TemperatureF,DewpointF,PressureIn,WindDirection,WindDirectionDegrees,WindSpeedMPH,WindSpeedGustMPH,Humidity,HourlyPrecipIn,Conditions,Clouds,dailyrainin,SolarRadiationWatts/m^2,SoftwareType,DateUTC
2013-08-02 00:02:00,61.0,55.0,30.07,West,274,4.0,8.0,80,0.00,,,0.00,0.000000,,2013-08-02 07:02:00,
2013-08-02 00:12:00,61.0,55.0,30.07,West,262,3.0,9.0,81,0.00,,,0.00,0.000000,,2013-08-02 07:12:00,
2013-08-02 00:33:00,60.0,54.0,30.06,WSW,254,4.0,11.0,82,0.00,,,0.00,0.000000,,2013-08-02 07:33:00,
2013-08-02 00:44:00,60.0,54.0,30.07,WSW,248,0.0,10.0,82,0.00,,,0.00,0.000000,,2013-08-02 07:44:00,
2013-08-02 00:53:00,60.0,54.0,30.06,SW,214,4.0,10.0,82,0.00,,,0.00,0.000000,,2013-08-02 07:53:00,
2013-08-02 01:02:00,60.0,54.0,30.07,SSW,209,1.0,6.0,82,0.00,,,0.00,0.000000,,2013-08-02 08:02:00,
2013-08-02 01:12:00,60.0,55.0,30.07,SSW,198,3.0,8.0,83,0.00,,,0.00,0.000000,,2013-08-02 08:12:00,
2013-08-02 01:22:00,60.0,55.0,30.07,West,265,2.0,5.0,83,0.00,,,0.00,0.000000,,2013-08-02 08:22:00,
2013-08-02 01:33:00,60.0,54.0,30.07,West,280,2.0,6.0,82,0.00,,,0.00,0.000000,,2013-08-02 08:33:00,
2013-08-02 01:43:00,60.0,54.0,30.07,SW,232,1.0,6.0,82,0.00,,,0.00,0.000000,,2013-08-02 08:43:00,
2013-08-02 01:53:00,60.0,54.0,30.07,South,178,3.0,9.0,82,0.00,,,0.00,0.000000,,2013-08-02 08:53:00,
2013-08-02 02:02:00,60.0,54.0,30.07,SW,215,1.0,7.0,82,0.00,,,0.00,0.000000,,2013-08-02 09:02:00,
2013-08-02 02:12:00,60.0,54.0,30.07,West,260,3.0,7.0,82,0.00,,,0.00,0.000000,,2013-08-02 09:12:00,
2013-08-02 02:22:00,60.0,55.0,30.07,West,259,1.0,4.0,83,0.00,,,0.00,0.000000,,2013-08-02 09:22:00,
2013-08-02 02:33:00,60.0,54.0,30.07,WSW,238,3.0,8.0,82,0.00,,,0.00,0.000000,,2013-08-02 09:33:00,
2013-08-02 02:43:00,60.0,54.0,30.06,South,185,2.0,7.0,82,0.00,,,0.00,0.000000,,2013-08-02 09:43:00,
2013-08-02 02:52:00,60.0,54.0,30.06,West,267,2.0,7.0,82,0.00,,,0.00,0.000000,,2013-08-02 09:52:00,
2013-08-02 03:02:00,60.0,54.0,30.07,SSW,195,0.0,7.0,82,0.00,,,0.00,0.000000,,2013-08-02 10:02:00,
2013-08-02 03:12:00,60.0,55.0,30.07,SSW,207,2.0,7.0,83,0.00,,,0.00,0.000000,,2013-08-02 10:12:00,
2013-08-02 03:23:00,60.0,55.0,30.06,WSW,240,1.0,5.0,83,0.00,,,0.00,0.000000,,2013-08-02 10:23:00,
2013-08-02 03:33:00,60.0,55.0,30.06,SW,226,0.0,4.0,83,0.00,,,0.00,0.000000,,2013-08-02 10:33:00,
2013-08-02 03:43:00,60.0,54.0,30.06,South,190,1.0,6.0,82,0.00,,,0.00,0.000000,,2013-08-02 10:43:00,
2013-08-02 03:52:00,60.0,54.0,30.06,West,263,1.0,5.0,82,0.00,,,0.00,0.000000,,2013-08-02 10:52:00,
2013-08-02 04:02:00,60.0,54.0,30.06,South,175,1.0,12.0,82,0.00,,,0.00,0.000000,,2013-08-02 11:02:00,
2013-08-02 04:11:00,60.0,54.0,30.07,SSW,205,1.0,9.0,82,0.00,,,0.00,0.000000,,2013-08-02 11:11:00,
2013-08-02 04:32:00,60.0,55.0,30.06,South,188,2.0,9.0,83,0.00,,,0.00,0.000000,,2013-08-02 11:32:00,
2013-08-02 04:42:00,59.0,54.0,30.06,SSE,158,1.0,7.0,83,0.00,,,0.00,0.000000,,2013-08-02 11:42:00,
2013-08-02 04:52:00,59.0,54.0,30.06,SSE,159,1.0,7.0,83,0.00,,,0.00,0.000000,,2013-08-02 11:52:00,
2013-08-02 05:01:00,59.0,54.0,30.06,SSW,194,2.0,5.0,83,0.00,,,0.00,0.000000,,2013-08-02 12:01:00,
2013-08-02 05:11:00,59.0,54.0,30.06,SSW,194,3.0,5.0,83,0.00,,,0.00,0.000000,,2013-08-02 12:11:00,
2013-08-02 05:32:00,59.0,54.0,30.06,SSW,192,1.0,10.0,83,0.00,,,0.00,0.000000,,2013-08-02 12:32:00,
2013-08-02 05:42:00,59.0,54.0,30.07,SSW,192,0.0,6.0,84,0.00,,,0.00,0.000000,,2013-08-02 12:42:00,
2013-08-02 05:52:00,59.0,54.0,30.07,South,191,1.0,6.0,84,0.00,,,0.00,0.000000,,2013-08-02 12:52:00,
2013-08-02 06:01:00,59.0,54.0,30.07,South,178,1.0,6.0,84,0.00,,,0.00,0.000000,,2013-08-02 13:01:00,
2013-08-02 06:11:00,59.0,54.0,30.07,South,178,1.0,4.0,84,0.00,,,0.00,0.000000,,2013-08-02 13:11:00,
2013-08-02 06:22:00,59.0,54.0,30.08,SSW,194,2.0,11.0,83,0.00,,,0.00,0.000000,,2013-08-02 13:22:00,
2013-08-02 06:42:00,59.0,54.0,30.08,SSW,197,0.0,13.0,84,0.00,,,0.00,11.000000,,2013-08-02 13:42:00,
2013-08-02 06:52:00,59.0,54.0,30.09,SW,219,3.0,7.0,83,0.00,,,0.00,12.000000,,2013-08-02 13:52:00,
2013-08-02 07:02:00,59.0,54.0,30.09,SW,220,2.0,5.0,84,0.00,,,0.00,37.000000,,2013-08-02 14:02:00,
2013-08-02 07:12:00,59.0,54.0,30.09,SW,219,1.0,5.0,83,0.00,,,0.00,39.000000,,2013-08-02 14:12:00,
2013-08-02 07:22:00,59.0,54.0,30.09,WSW,239,2.0,5.0,83,0.00,,,0.00,30.000000,,2013-08-02 14:22:00,
2013-08-02 07:43:00,59.0,54.0,30.10,SW,231,2.0,5.0,82,0.00,,,0.00,23.000000,,2013-08-02 14:43:00,
2013-08-02 07:53:00,59.0,54.0,30.10,SW,233,0.0,6.0,82,0.00,,,0.00,37.000000,,2013-08-02 14:53:00,
2013-08-02 08:02:00,59.0,54.0,30.10,WSW,242,1.0,6.0,82,0.00,,,0.00,58.000000,,2013-08-02 15:02:00,
2013-08-02 08:11:00,60.0,55.0,30.10,WSW,240,1.0,6.0,83,0.00,,,0.00,46.000000,,2013-08-02 15:11:00,
2013-08-02 08:32:00,60.0,55.0,30.10,WSW,237,0.0,4.0,83,0.00,,,0.00,25.000000,,2013-08-02 15:32:00,
2013-08-02 08:52:00,59.0,55.0,30.10,WSW,250,0.0,10.0,86,0.00,,,0.00,26.000000,,2013-08-02 15:52:00,
2013-08-02 09:01:00,59.0,55.0,30.10,SW,234,1.0,7.0,86,0.00,,,0.00,40.000000,,2013-08-02 16:01:00,
2013-08-02 09:11:00,59.0,54.0,30.10,SW,232,2.0,6.0,85,0.00,,,0.00,67.000000,,2013-08-02 16:11:00,
2013-08-02 09:32:00,60.0,55.0,30.10,SSW,207,0.0,4.0,83,0.00,,,0.00,105.000000,,2013-08-02 16:32:00,
2013-08-02 09:42:00,60.0,54.0,30.11,SSW,207,2.0,5.0,82,0.00,,,0.00,105.000000,,2013-08-02 16:42:00,
2013-08-02 09:52:00,60.0,54.0,30.11,SSW,207,0.0,4.0,81,0.00,,,0.00,70.000000,,2013-08-02 16:52:00,
2013-08-02 10:02:00,61.0,55.0,30.11,SSW,207,0.0,3.0,81,0.00,,,0.00,49.000000,,2013-08-02 17:02:00,
2013-08-02 10:11:00,61.0,55.0,30.11,SSW,207,3.0,4.0,81,0.00,,,0.00,83.000000,,2013-08-02 17:11:00,
2013-08-02 10:22:00,61.0,55.0,30.11,SSW,208,1.0,4.0,80,0.00,,,0.00,95.000000,,2013-08-02 17:22:00,
2013-08-02 10:34:00,61.0,55.0,30.11,SSW,208,0.0,4.0,80,0.00,,,0.00,83.000000,,2013-08-02 17:34:00,
2013-08-02 10:42:00,61.0,55.0,30.11,SSW,194,3.0,6.0,82,0.00,,,0.00,37.000000,,2013-08-02 17:42:00,
2013-08-02 10:52:00,61.0,56.0,30.11,SSW,207,1.0,6.0,83,0.00,,,0.00,56.000000,,2013-08-02 17:52:00,
2013-08-02 11:01:00,60.0,56.0,30.11,SSW,207,0.0,2.0,86,0.05,,,0.05,116.000000,,2013-08-02 18:01:00,
2013-08-02 11:32:00,60.0,56.0,30.11,SSW,207,0.0,1.0,88,0.06,,,0.06,37.000000,,2013-08-02 18:32:00,
2013-08-02 11:52:00,60.0,56.0,30.11,SSW,207,0.0,3.0,88,0.07,,,0.07,30.000000,,2013-08-02 18:52:00,
2013-08-02 12:43:00,60.0,57.0,30.12,SSW,207,0.0,5.0,90,0.04,,,0.11,56.000000,,2013-08-02 19:43:00,
2013-08-02 12:52:00,60.0,57.0,30.11,SSW,207,0.0,2.0,90,0.04,,,0.11,98.000000,,2013-08-02 19:52:00,
2013-08-02 13:02:00,60.0,57.0,30.12,SSW,207,1.0,3.0,90,0.04,,,0.12,132.000000,,2013-08-02 20:02:00,
2013-08-02 13:12:00,60.0,57.0,30.12,SSW,207,0.0,3.0,91,0.03,,,0.12,135.000000,,2013-08-02 20:12:00,
2013-08-02 13:32:00,60.0,57.0,30.12,SSW,207,1.0,3.0,90,0.04,,,0.13,123.000000,,2013-08-02 20:32:00,
2013-08-02 13:43:00,61.0,58.0,30.12,SSW,207,1.0,4.0,90,0.03,,,0.14,123.000000,,2013-08-02 20:43:00,
2013-08-02 13:52:00,61.0,58.0,30.12,SSW,207,1.0,4.0,90,0.03,,,0.14,149.000000,,2013-08-02 20:52:00,
2013-08-02 14:02:00,61.0,58.0,30.12,SSW,207,1.0,4.0,89,0.02,,,0.14,139.000000,,2013-08-02 21:02:00,
2013-08-02 14:32:00,61.0,57.0,30.12,SSW,207,0.0,4.0,88,0.01,,,0.14,139.000000,,2013-08-02 21:32:00,
2013-08-02 14:43:00,61.0,58.0,30.13,SSW,207,0.0,3.0,89,0.00,,,0.14,90.000000,,2013-08-02 21:43:00,
2013-08-02 14:52:00,61.0,58.0,30.13,SSW,207,0.0,2.0,89,0.00,,,0.14,81.000000,,2013-08-02 21:52:00,
2013-08-02 15:01:00,61.0,58.0,30.13,SSW,207,1.0,3.0,89,0.00,,,0.14,107.000000,,2013-08-02 22:01:00,
2013-08-02 15:32:00,61.0,58.0,30.14,SSW,207,1.0,2.0,90,0.00,,,0.14,97.000000,,2013-08-02 22:32:00,
2013-08-02 15:52:00,61.0,58.0,30.13,SSW,207,0.0,2.0,89,0.01,,,0.15,83.000000,,2013-08-02 22:52:00,
2013-08-02 16:11:00,61.0,58.0,30.13,SSW,207,0.0,2.0,89,0.01,,,0.15,90.000000,,2013-08-02 23:11:00,
2013-08-02 16:43:00,61.0,58.0,30.12,SSW,207,0.0,3.0,91,0.00,,,0.15,77.000000,,2013-08-02 23:43:00,
2013-08-02 16:53:00,61.0,58.0,30.13,SSW,207,1.0,3.0,91,0.00,,,0.15,70.000000,,2013-08-02 23:53:00,
2013-08-02 17:01:00,61.0,58.0,30.13,SSW,207,0.0,3.0,90,0.00,,,0.15,86.000000,,2013-08-03 00:01:00,
2013-08-02 17:52:00,61.0,58.0,30.11,SSW,207,0.0,2.0,90,0.00,,,0.15,90.000000,,2013-08-03 00:52:00,
2013-08-02 18:02:00,61.0,58.0,30.11,SSW,207,0.0,3.0,90,0.00,,,0.15,81.000000,,2013-08-03 01:02:00,
2013-08-02 18:42:00,61.0,58.0,30.11,SSW,207,1.0,2.0,89,0.00,,,0.15,33.000000,,2013-08-03 01:42:00,
2013-08-02 19:02:00,61.0,58.0,30.11,SSW,207,1.0,4.0,89,0.00,,,0.15,72.000000,,2013-08-03 02:02:00,
2013-08-02 19:43:00,61.0,58.0,30.11,SSW,207,1.0,3.0,89,0.00,,,0.15,35.000000,,2013-08-03 02:43:00,
2013-08-02 19:52:00,61.0,58.0,30.11,SSW,207,0.0,3.0,89,0.00,,,0.15,23.000000,,2013-08-03 02:52:00,
2013-08-02 20:43:00,61.0,58.0,30.12,SSW,207,0.0,2.0,89,0.00,,,0.15,0.000000,,2013-08-03 03:43:00,
2013-08-02 20:53:00,60.0,57.0,30.12,SSW,207,0.0,3.0,89,0.00,,,0.15,0.000000,,2013-08-03 03:53:00,
2013-08-02 21:01:00,60.0,57.0,30.12,SSW,207,0.0,2.0,89,0.00,,,0.15,0.000000,,2013-08-03 04:01:00,
2013-08-02 22:01:00,60.0,57.0,30.13,SSW,207,0.0,0.0,90,0.00,,,0.15,0.000000,,2013-08-03 05:01:00,
2013-08-02 22:32:00,60.0,57.0,30.12,SSW,207,0.0,2.0,90,0.00,,,0.15,0.000000,,2013-08-03 05:32:00,
2013-08-02 23:01:00,60.0,57.0,30.12,SSW,207,0.0,0.0,90,0.00,,,0.15,0.000000,,2013-08-03 06:01:00,
2013-08-02 23:32:00,60.0,57.0,30.12,SSW,207,0.0,0.0,90,0.00,,,0.15,0.000000,,2013-08-03 06:32:00,
2013-08-02 23:42:00,60.0,57.0,30.12,SSW,207,0.0,0.0,90,0.00,,,0.15,0.000000,,2013-08-03 06:42:00,
2013-08-02 23:52:00,60.0,57.0,30.12,SSW,207,0.0,0.0,90,0.00,,,0.15,0.000000,,2013-08-03 06:52:00,